{"data":{"norad_id":58651,"epoch":"2026-05-20T18:23:08.706336Z","epoch_age_seconds":440832,"freshness":"STALE","line1":"1 58651U 23206B   26140.76607299  .00000936  00000+0  83719-4 0  9996","line2":"2 58651  97.4047 109.9760 0001984 178.8372 181.2857 14.98077721131203","mean_motion":14.98077721,"eccentricity":0.0001984,"inclination_deg":97.4047,"raan_deg":109.976,"arg_perigee_deg":178.8372,"mean_anomaly_deg":181.2857,"bstar":8.3719e-5,"rev_number":13120,"period_min":96.123183718317,"perigee_km":571.45707934836,"apogee_km":574.21522549524,"semimajor_km":6950.9731524218,"source":"CELESTRAK","updated_at":"2026-05-25T13:38:00.876742Z"}}